Content
SEND FEEDBACK

Daily
Averages
Monthly
Summary
United States of America

MARBLEHEAD, OHIO


Home > North America > United States > Ohio
Elevation: 630 feet     Latitude: 41 30N     Longitude: 082 42W

WEATHER
 
SELECT A DAY
Number of Records: 180,637;   Date Range: 10/8/98 - 9/18/14
 
SHARE

PRINT THIS DATA

[ ← Previous Day ]
WEATHER ALMANAC - JANUARY 16, 2013
[ Next Day → ]
[ °C ]   °F
Weather ElementAverageHighLow
Temperature32.4 °F35.1 °F (1:53 pm)28.9 °F (7:53 am)
Dewpoint23.4 °F26.1 °F (1:53 pm)21 °F (8:53 pm)
Humidity69.7 %85 % (7:53 am)59 % (8:53 pm)
Barometer29.97 in30.09 in (1:53 am)29.90 in (3:53 pm)
Wind Speed10.7 mph19.6 mph (8:53 pm)
Wind Gust24.2 mph (8:53 pm)
Weather ElementAverage
Visibility9.7 mi
Wind DirectionS (184.3 °)

Weather ElementTotal
Precipitation---
Heating Degree Days33 (Base 65)
Averaged from 21 records on January 16, 2013
WEATHER CONDITIONS BREAKOUT
WIND DIRECTION BREAKOUT
WEATHER BY HOUR - JANUARY 16, 2013
[ °C ]   °F
Local TimeTemperatureDewpointHumidityBarometerVisibilityWind DirectionWind SpeedGust SpeedPrecipitationEventsConditions
1:53 AM30.9 °F23.0 °F72 %30.09 in10.0 miNE (40°)4.6 mphOvercast
3:53 AM30.0 °F23.0 °F75 %30.05 in10.0 miCalmOvercast
4:53 AM30.9 °F23.0 °F72 %30.02 in10.0 miNNE (30°)3.5 mphOvercast
5:53 AM30.0 °F24.1 °F79 %30.01 in10.0 miCalmOvercast
7:53 AM28.9 °F25.0 °F85 %29.99 in9.0 miCalmOvercast
8:53 AM30.0 °F24.1 °F79 %29.97 in9.0 miSSW (200°)3.5 mphOvercast
9:53 AM30.0 °F24.1 °F79 %29.96 in8.0 miSSW (200°)8.1 mphPartly Cloudy
10:53 AM32.0 °F24.1 °F73 %29.98 in10.0 miSW (230°)9.2 mphScattered Clouds
11:53 AM32.0 °F24.1 °F73 %29.97 in9.0 miWest (260°)15.0 mphClear
12:53 PM33.1 °F24.1 °F70 %29.93 in10.0 miWest (260°)13.8 mphClear
1:53 PM35.1 °F26.1 °F70 %29.91 in10.0 miWSW (240°)13.8 mphClear
2:53 PM35.1 °F24.1 °F64 %29.91 in10.0 miWSW (240°)16.1 mphClear
3:53 PM34.0 °F24.1 °F67 %29.90 in10.0 miSW (220°)16.1 mph21.9 mphClear
4:53 PM33.1 °F23.0 °F66 %29.92 in9.0 miSW (230°)12.7 mphClear
5:53 PM33.1 °F23.0 °F66 %29.95 in9.0 miSW (230°)12.7 mphClear
6:53 PM33.1 °F23.0 °F66 %29.96 in10.0 miSW (230°)15.0 mph23.0 mphClear
7:53 PM33.1 °F21.9 °F64 %29.96 in10.0 miWSW (240°)18.4 mphClear
8:53 PM34.0 °F21.0 °F59 %29.96 in10.0 miWSW (250°)19.6 mph24.2 mphMostly Cloudy
9:53 PM34.0 °F21.0 °F59 %29.99 in10.0 miWSW (250°)15.0 mphOvercast
10:53 PM34.0 °F21.9 °F61 %30.00 in10.0 miWest (260°)13.8 mphOvercast
11:53 PM34.0 °F23.0 °F64 %30.02 in10.0 miWest (260°)13.8 mphOvercast
Hourly data recorded from KLPR, located miles away from Marblehead, Ohio







STORIES FROM OUR PARTNERS